Weather History for KRFD - May, 2012

Change the Weather History Date:

Sunday, May 6, 2012

  Actual Average Record
Temperature  
Mean Temperature 61 °F 57 °F  
Max Temperature 67 °F 69 °F 95 °F (1934)
Min Temperature 54 °F 45 °F 29 °F (1967)
Degree Days  
Heating Degree Days 4 9  
Month to date heating degree days 22 57  
Since 1 July heating degree days 5262 6397  
Cooling Degree Days 0 1  
Month to date cooling degree days 17 4  
Year to date cooling degree days 55 12  
Growing Degree Days 10 (Base 50)    
Moisture  
Dew Point 56 °F    
Average Humidity 83    
Maximum Humidity 93    
Minimum Humidity 73    
Precipitation  
Precipitation 0.03 in 0.12 in 2.15 in (1960)
Month to date precipitation 0.23 0.68  
Year to date precipitation 8.99 9.13  
Snow  
Snow 0.00 in 0.00 in T in (2002)
Month to date snowfall 0.0 0.0  
Since 1 July snowfall 24.3 36.7  
Snow Depth 0.00 in    
Sea Level Pressure  
Sea Level Pressure 29.95 in    
Wind  
Wind Speed 9 mph (East)    
Max Wind Speed 18 mph    
Max Gust Speed 25 mph    
Visibility 8 miles    
Events Rain , Thunderstorm    
T = Trace of Precipitation, MM = Missing Value Source: NWS Daily Summary

Daily Weather History Graph

Daily Weather History Graph

Search for Another Location

Airport or City:

Trip Planner

Search our weather history database for the weather conditions in past years. The results will help you decide how hot, cold, wet, or windy it might be!

Date:

Astronomy

May. 06, 2012 Rise Set
Actual Time 5:44 AM CDT 8:01 PM CDT
Civil Twilight 5:13 AM CDT 8:32 PM CDT
Nautical Twilight 4:35 AM CDT 9:11 PM CDT
Astronomical Twilight 3:52 AM CDT 9:54 PM CDT
Moon 9:08 PM CDT (5/6) 5:54 AM CDT (5/6)
Length of Visible Light 15h 19m
Length of Day
14h 16m
Full, 100% of the Moon is Illuminated
May 6
Full
May 12
Last Quarter
May 20
New
May 28
First Quarter
Jun 4
Full

Hourly Weather History & Observations

Time (CDT) Temp. Dew Point Humidity Pressure Visibility Wind Dir Wind Speed Gust Speed Precip Events Conditions
12:12 AM 53.6 °F 51.8 °F 94% 30.02 in 6.0 mi ESE 8.1 mph 17.3 mph N/A   Overcast
12:54 AM 54.0 °F 52.0 °F 93% 30.01 in 5.0 mi ESE 9.2 mph 16.1 mph N/A   Overcast
1:54 AM 55.0 °F 53.1 °F 93% 29.98 in 4.0 mi SSE 8.1 mph - N/A   Overcast
2:54 AM 55.9 °F 54.0 °F 93% 29.99 in 4.0 mi Calm Calm - N/A   Scattered Clouds
3:54 AM 55.9 °F 54.0 °F 93% 29.99 in 6.0 mi NE 6.9 mph - N/A   Scattered Clouds
4:54 AM 55.0 °F 53.1 °F 93% 30.00 in 5.0 mi NE 9.2 mph - N/A   Mostly Cloudy
5:54 AM 55.0 °F 52.0 °F 89% 29.99 in 5.0 mi East 8.1 mph - N/A   Mostly Cloudy
6:24 AM 55.4 °F 51.8 °F 88% 29.99 in 4.0 mi East 6.9 mph - N/A   Overcast
6:54 AM 55.4 °F 53.6 °F 94% 29.99 in 4.0 mi East 10.4 mph - N/A   Overcast
7:37 AM 57.2 °F 53.6 °F 88% 29.98 in 6.0 mi ESE 9.2 mph - N/A   Haze
7:54 AM 57.9 °F 54.0 °F 87% 29.98 in 6.0 mi ESE 9.2 mph - N/A   Overcast
8:54 AM 63.0 °F 55.9 °F 78% 29.96 in 6.0 mi SE 12.7 mph 18.4 mph N/A   Haze
9:19 AM 64.4 °F 57.2 °F 77% 29.95 in 7.0 mi SE 15.0 mph 20.7 mph 0.00 in Rain , Thunderstorm Light Thunderstorms and Rain
9:33 AM 64.4 °F 57.2 °F 77% 29.95 in 7.0 mi SE 11.5 mph - 0.00 in Thunderstorm Thunderstorm
9:54 AM 64.9 °F 60.1 °F 84% 29.95 in 8.0 mi SSE 11.5 mph - 0.03 in Thunderstorm Thunderstorm
10:54 AM 66.9 °F 61.0 °F 81% 29.95 in 7.0 mi SSE 13.8 mph - 0.00 in   Overcast
11:54 AM 62.1 °F 57.0 °F 84% 30.01 in 5.0 mi NE 13.8 mph - N/A   Haze
12:54 PM 62.1 °F 55.9 °F 80% 29.99 in 7.0 mi ENE 12.7 mph - N/A   Overcast
1:54 PM 63.0 °F 57.0 °F 81% 29.97 in 9.0 mi East 12.7 mph 16.1 mph N/A   Overcast
2:50 PM 64.4 °F 60.8 °F 88% 29.90 in 9.0 mi ESE 15.0 mph - N/A   Overcast
2:54 PM 64.9 °F 60.1 °F 84% 29.89 in 8.0 mi ESE 11.5 mph - N/A   Overcast
3:34 PM 64.4 °F 60.8 °F 88% 29.92 in 10.0 mi East 9.2 mph - N/A   Overcast
3:54 PM 64.9 °F 59.0 °F 81% 29.91 in 8.0 mi East 9.2 mph - N/A   Overcast
4:38 PM 64.4 °F 57.2 °F 77% 29.91 in 10.0 mi ESE 8.1 mph - N/A   Overcast
4:54 PM 64.0 °F 57.0 °F 78% 29.90 in 10.0 mi East 8.1 mph - N/A   Overcast
5:54 PM 66.9 °F 57.9 °F 73% 29.87 in 10.0 mi East 5.8 mph - N/A   Overcast
6:54 PM 66.0 °F 57.9 °F 75% 29.89 in 10.0 mi NNE 5.8 mph - N/A   Overcast
7:54 PM 64.9 °F 57.9 °F 78% 29.88 in 10.0 mi NE 6.9 mph - N/A   Overcast
8:54 PM 62.1 °F 57.0 °F 84% 29.90 in 10.0 mi NNE 11.5 mph - N/A   Overcast
9:54 PM 60.1 °F 55.0 °F 83% 29.90 in 10.0 mi NE 8.1 mph - N/A   Mostly Cloudy
10:54 PM 60.1 °F 55.0 °F 83% 29.92 in 10.0 mi ENE 6.9 mph - N/A   Overcast
11:24 PM 60.8 °F 55.4 °F 82% 29.92 in 10.0 mi NE 4.6 mph - N/A   Overcast
11:44 PM 60.8 °F 53.6 °F 77% 29.92 in 10.0 mi East 4.6 mph - N/A Thunderstorm Thunderstorm
11:54 PM 59.0 °F 54.0 °F 83% 29.91 in 10.0 mi ENE 4.6 mph - N/A Thunderstorm Thunderstorm